Location: Unspecified
(50.4435°N, 0.0000°E)
Time: 05:44:20
(UTC+00:00)

NOAA 16 DEB - Visible Passes

Search period start: 04 April 2026 00:00
Search period end: 14 April 2026 00:00
Orbit: 795 x 802 km, 98.6° (Epoch: 26 March)

Date Brightness Start Highest point End Pass type
(mag) Time Alt. Az. Time Alt. Az. Time Alt. Az.
4 Apr ? 19:23:15 10° E 19:26:00 15° NE 19:28:46 10° NNE visible
4 Apr ? 21:03:23 48° SE 21:04:47 72° ENE 21:10:01 10° NNW visible
4 Apr ? 22:44:17 19° W 22:44:59 19° W 22:48:43 10° NW visible
5 Apr ? 20:35:48 31° ESE 20:37:44 44° ENE 20:42:42 10° N visible
5 Apr ? 22:16:42 30° WSW 22:17:31 31° W 22:22:11 10° NNW visible
6 Apr ? 20:08:13 19° ESE 20:10:47 29° ENE 20:15:13 10° N visible
6 Apr ? 21:49:06 44° SW 21:50:11 51° W 21:55:19 10° NNW visible
7 Apr ? 19:40:37 11° E 19:43:55 19° NE 19:47:32 10° NNE visible
7 Apr ? 21:21:31 50° S 21:22:57 84° WSW 21:28:14 10° NNW visible
7 Apr ? 23:02:24 13° W 23:03:25 14° W 23:06:03 10° NW visible
8 Apr ? 19:15:00 10° ENE 19:17:11 13° NE 19:19:21 10° NNE visible
8 Apr ? 20:53:55 37° SE 20:55:49 61° ENE 21:01:00 10° N visible
8 Apr ? 22:34:48 21° WSW 22:35:52 23° W 22:39:59 10° NW visible
9 Apr ? 20:26:19 24° ESE 20:28:47 38° ENE 20:33:36 10° N visible
9 Apr ? 22:07:11 32° SW 22:08:27 37° W 22:13:18 10° NNW visible
10 Apr ? 19:58:42 15° ESE 20:01:51 25° ENE 20:06:03 10° N visible
10 Apr ? 21:39:35 43° SSW 21:41:08 61° WSW 21:46:20 10° NNW visible
11 Apr ? 19:31:48 10° E 19:35:01 17° NE 19:38:13 10° NNE visible
11 Apr ? 21:11:58 40° SSE 21:13:54 83° ENE 21:19:10 10° NNW visible
11 Apr ? 22:52:51 15° WSW 22:54:13 16° W 22:57:30 10° NW visible
12 Apr ? 20:44:21 29° SE 20:46:46 52° ENE 20:51:52 10° N visible
12 Apr ? 22:25:14 23° WSW 22:26:42 27° W 22:31:07 10° NW visible
13 Apr ? 20:16:44 19° ESE 20:19:45 33° ENE 20:24:24 10° N visible
13 Apr ? 21:57:37 33° SW 21:59:17 44° W 22:04:18 10° NNW visible
